• en France
  • Liste des pays
  • À 7 jours
  • Température de l'eau
  • Carte satellitaire
  • Carte météo
  • Widgets météo
  • user-avatar
    Se connecter

    Météo par heure à Sölden

    Ce jour, 16 Octobre, Mardi

    Heure Température Précipitation Vent Pression Humidité
    00:00 +1°C° 0 mm 1 m/s 583 mmHg 93%
    01:00 +1°C° 0 mm 1 m/s 583 mmHg 93%
    02:00 +1°C° 0 mm 1 m/s 583 mmHg 92%
    03:00 +1°C° 0 mm 1 m/s 583 mmHg 91%
    04:00 +1°C° 0 mm 1 m/s 583 mmHg 90%
    05:00 +1°C° 0 mm 1 m/s 583 mmHg 89%
    06:00 +1°C° 0 mm 1 m/s 583 mmHg 88%
    07:00 +1°C° 0 mm 1 m/s 583 mmHg 87%
    08:00 +3°C° 0 mm 1 m/s 584 mmHg 77%
    09:00 +6°C° 0 mm 1 m/s 585 mmHg 67%
    10:00 +8°C° 0 mm 1 m/s 586 mmHg 57%
    11:00 +9°C° 0 mm 1 m/s 587 mmHg 54%
    12:00 +10°C° 0 mm 1 m/s 587 mmHg 51%
    13:00 +10°C° 0 mm 1 m/s 587 mmHg 48%
    14:00 +10°C° 0 mm 1 m/s 587 mmHg 51%
    15:00 +9°C° 0 mm 1 m/s 587 mmHg 55%
    16:00 +9°C° 0 mm 1 m/s 586 mmHg 59%
    17:00 +7°C° 0 mm 1 m/s 586 mmHg 69%
    18:00 +5°C° 0 mm 1 m/s 585 mmHg 79%
    19:00 +3°C° 0 mm 1 m/s 584 mmHg 89%
    20:00 +3°C° 0 mm 1 m/s 584 mmHg 90%
    21:00 +3°C° 0 mm 1 m/s 584 mmHg 90%
    22:00 +3°C° 0 mm 1 m/s 584 mmHg 91%
    23:00 +3°C° 0 mm 1 m/s 584 mmHg 91%

    Demain, 17 Octobre, Mercredi

    Heure Température Précipitation Vent Pression Humidité
    00:00 +2°C° 0 mm 1 m/s 584 mmHg 91%
    01:00 +2°C° 0 mm 1 m/s 584 mmHg 91%
    02:00 +2°C° 0 mm 1 m/s 584 mmHg 91%
    03:00 +2°C° 0 mm 1 m/s 583 mmHg 91%
    04:00 +2°C° 0 mm 1 m/s 583 mmHg 91%
    05:00 +2°C° 0 mm 1 m/s 583 mmHg 90%
    06:00 +2°C° 0 mm 1 m/s 583 mmHg 89%
    07:00 +2°C° 0 mm 1 m/s 583 mmHg 88%
    08:00 +4°C° 0 mm 1 m/s 584 mmHg 78%
    09:00 +5°C° 0 mm 0 m/s 585 mmHg 69%
    10:00 +8°C° 0 mm 0 m/s 586 mmHg 59%
    11:00 +9°C° 0 mm 1 m/s 586 mmHg 57%
    12:00 +10°C° 0 mm 1 m/s 587 mmHg 54%
    13:00 +11°C° 0 mm 1 m/s 587 mmHg 51%
    14:00 +10°C° 0 mm 1 m/s 586 mmHg 54%
    15:00 +10°C° 0 mm 1 m/s 586 mmHg 58%
    16:00 +9°C° 0 mm 1 m/s 586 mmHg 61%
    17:00 +7°C° 0 mm 1 m/s 585 mmHg 71%
    18:00 +5°C° 0 mm 1 m/s 584 mmHg 81%
    19:00 +2°C° 0 mm 0 m/s 583 mmHg 91%
    20:00 +2°C° 0 mm 0 m/s 583 mmHg 91%
    21:00 +3°C° 0 mm 1 m/s 583 mmHg 91%
    22:00 +3°C° 0 mm 1 m/s 583 mmHg 91%
    23:00 +3°C° 0 mm 1 m/s 583 mmHg 91%

    Après-demain, 18 Octobre, Jeudi

    Heure Température Précipitation Vent Pression Humidité
    00:00 +2°C° 0 mm 1 m/s 583 mmHg 91%
    01:00 +2°C° 0 mm 1 m/s 583 mmHg 91%
    02:00 +2°C° 0 mm 1 m/s 582 mmHg 91%
    03:00 +2°C° 0 mm 1 m/s 582 mmHg 91%
    04:00 +2°C° 0 mm 1 m/s 582 mmHg 90%
    05:00 +2°C° 0 mm 1 m/s 582 mmHg 89%
    06:00 +2°C° 0 mm 1 m/s 582 mmHg 89%
    07:00 +2°C° 0 mm 1 m/s 582 mmHg 88%
    08:00 +4°C° 0 mm 1 m/s 583 mmHg 78%
    09:00 +7°C° 0 mm 1 m/s 585 mmHg 67%
    10:00 +9°C° 0 mm 1 m/s 586 mmHg 57%
    11:00 +10°C° 0 mm 1 m/s 586 mmHg 54%
    12:00 +11°C° 0 mm 1 m/s 587 mmHg 51%
    13:00 +12°C° 0 mm 1 m/s 587 mmHg 48%
    14:00 +11°C° 0 mm 1 m/s 586 mmHg 52%
    15:00 +10°C° 0 mm 1 m/s 586 mmHg 55%
    16:00 +10°C° 0 mm 1 m/s 586 mmHg 59%
    17:00 +8°C° 0 mm 1 m/s 585 mmHg 68%
    18:00 +6°C° 0 mm 1 m/s 584 mmHg 78%
    19:00 +3°C° 0 mm 0 m/s 583 mmHg 87%
    20:00 +2°C° 0 mm 0 m/s 583 mmHg 88%
    21:00 +3°C° 0 mm 1 m/s 583 mmHg 88%
    22:00 +3°C° 0 mm 1 m/s 584 mmHg 88%
    23:00 +3°C° 0 mm 1 m/s 584 mmHg 88%

    19 Octobre, Vendredi

    Heure Température Précipitation Vent Pression Humidité
    00:00 +3°C° 0 mm 1 m/s 584 mmHg 88%
    01:00 +3°C° 0 mm 1 m/s 584 mmHg 87%
    02:00 +3°C° 0 mm 1 m/s 583 mmHg 87%
    03:00 +2°C° 0 mm 1 m/s 583 mmHg 87%
    04:00 +2°C° 0 mm 1 m/s 583 mmHg 87%
    05:00 +2°C° 0 mm 1 m/s 583 mmHg 87%
    06:00 +2°C° 0 mm 1 m/s 583 mmHg 86%
    07:00 +2°C° 0 mm 1 m/s 583 mmHg 86%
    08:00 +5°C° 0 mm 1 m/s 585 mmHg 77%
    09:00 +6°C° 0 mm 0 m/s 586 mmHg 68%
    10:00 +9°C° 0 mm 0 m/s 588 mmHg 58%
    11:00 +10°C° 0 mm 1 m/s 588 mmHg 55%
    12:00 +11°C° 0 mm 1 m/s 588 mmHg 52%
    13:00 +12°C° 0 mm 1 m/s 588 mmHg 49%
    14:00 +11°C° 0 mm 1 m/s 588 mmHg 53%
    15:00 +11°C° 0 mm 1 m/s 588 mmHg 56%
    16:00 +10°C° 0 mm 1 m/s 587 mmHg 60%
    17:00 +8°C° 0 mm 1 m/s 587 mmHg 70%
    18:00 +6°C° 0 mm 1 m/s 586 mmHg 79%
    19:00 +3°C° 0 mm 0 m/s 585 mmHg 89%
    20:00 +3°C° 0 mm 0 m/s 585 mmHg 90%
    21:00 +2°C° 0 mm 0 m/s 585 mmHg 91%
    22:00 +2°C° 0 mm 0 m/s 585 mmHg 92%
    23:00 +2°C° 0 mm 0 m/s 585 mmHg 93%

    20 Octobre, Samedi

    Heure Température Précipitation Vent Pression Humidité
    00:00 +2°C° 0 mm 0 m/s 585 mmHg 93%
    01:00 +3°C° 0 mm 1 m/s 585 mmHg 93%
    02:00 +2°C° 0 mm 1 m/s 585 mmHg 93%
    03:00 +2°C° 0 mm 1 m/s 585 mmHg 93%
    04:00 +2°C° 0 mm 1 m/s 585 mmHg 93%
    05:00 +2°C° 0 mm 1 m/s 585 mmHg 93%
    06:00 +2°C° 0 mm 1 m/s 585 mmHg 93%
    07:00 +2°C° 0 mm 1 m/s 585 mmHg 93%
    08:00 +4°C° 0 mm 1 m/s 586 mmHg 83%
    09:00 +6°C° 0 mm 1 m/s 587 mmHg 73%
    10:00 +9°C° 0 mm 1 m/s 589 mmHg 63%
    11:00 +9°C° 0 mm 1 m/s 589 mmHg 60%
    12:00 +9°C° 0 mm 2 m/s 589 mmHg 56%
    13:00 +10°C° 0 mm 2 m/s 589 mmHg 53%
    14:00 +9°C° 0.1 mm 2 m/s 589 mmHg 57%
    15:00 +8°C° 0.1 mm 2 m/s 588 mmHg 61%
    16:00 +7°C° 0.1 mm 2 m/s 588 mmHg 64%
    17:00 +6°C° 0.1 mm 2 m/s 588 mmHg 70%
    18:00 +5°C° 0.1 mm 2 m/s 587 mmHg 76%
    19:00 +3°C° 0.1 mm 2 m/s 587 mmHg 82%
    20:00 +2°C° 0 mm 2 m/s 587 mmHg 83%
    21:00 +2°C° 0 mm 2 m/s 587 mmHg 85%
    22:00 +1°C° 0 mm 2 m/s 586 mmHg 87%
    23:00 -1°C° 0 mm 2 m/s 586 mmHg 86%

    21 Octobre, Dimanche

    Heure Température Précipitation Vent Pression Humidité
    00:00 -1°C° 0 mm 2 m/s 586 mmHg 86%
    01:00 -2°C° 0 mm 2 m/s 585 mmHg 85%
    02:00 -2°C° 0 mm 2 m/s 585 mmHg 83%
    03:00 -2°C° 0 mm 2 m/s 585 mmHg 81%
    04:00 -2°C° 0 mm 2 m/s 585 mmHg 79%
    05:00 -2°C° 0 mm 2 m/s 585 mmHg 76%
    06:00 -2°C° 0 mm 2 m/s 585 mmHg 73%
    07:00 -2°C° 0 mm 2 m/s 585 mmHg 71%
    08:00 +1°C° 0 mm 2 m/s 586 mmHg 60%
    09:00 +4°C° 0 mm 2 m/s 588 mmHg 50%
    10:00 +6°C° 0 mm 2 m/s 589 mmHg 39%
    11:00 +8°C° 0 mm 2 m/s 589 mmHg 35%
    12:00 +9°C° 0 mm 2 m/s 589 mmHg 30%
    13:00 +10°C° 0 mm 2 m/s 590 mmHg 26%
    14:00 +9°C° 0 mm 2 m/s 589 mmHg 30%
    15:00 +8°C° 0 mm 2 m/s 589 mmHg 35%
    16:00 +8°C° 0 mm 2 m/s 588 mmHg 39%
    17:00 +5°C° 0 mm 2 m/s 587 mmHg 49%
    18:00 +3°C° 0 mm 2 m/s 586 mmHg 58%
    19:00 +1°C° 0 mm 2 m/s 585 mmHg 68%
    20:00 -1°C° 0 mm 2 m/s 585 mmHg 68%
    21:00 -1°C° 0 mm 2 m/s 585 mmHg 69%
    22:00 -1°C° 0 mm 2 m/s 585 mmHg 69%
    23:00 -1°C° 0 mm 2 m/s 585 mmHg 66%
    Voir plus